Yankton, SD

2:20 AM CDT on April 27, 2017 (GMT -0500)
Gurney Municipal

Weather History for KYKN - April, 2013

Change the Weather History Date:

Thursday, April 4, 2013

  Actual Average Record
Temperature  
Mean Temperature 46 °F -  
Max Temperature 57 °F 51 °F 80 °F (2005)
Min Temperature 35 °F 28 °F 2 °F (1975)
Degree Days  
Heating Degree Days 19    
Moisture  
Dew Point 25 °F    
Average Humidity 45    
Maximum Humidity 81    
Minimum Humidity 23    
Precipitation  
Precipitation 0.00 in - - ()
Sea Level Pressure  
Sea Level Pressure 30.11 in    
Wind  
Wind Speed 14 mph (NNW)    
Max Wind Speed 22 mph    
Max Gust Speed 26 mph    
Visibility 10 miles    
Events      
Averages and records for this station are not official NWS values.
T = Trace of Precipitation, MM = Missing Value Source: NWS Daily Summary

Daily Weather History Graph

Daily Weather History Graph

Search for Another Location

Airport or City:

Trip Planner

Search our weather history database for the weather conditions in past years. The results will help you decide how hot, cold, wet, or windy it might be!

Date:

Astronomy

Apr. 04, 2013 Rise Set
Actual Time 7:05 AM CDT 7:59 PM CDT
Civil Twilight 6:37 AM CDT 8:28 PM CDT
Nautical Twilight 6:02 AM CDT 9:02 PM CDT
Astronomical Twilight 5:27 AM CDT 9:38 PM CDT
Moon 3:41 AM CDT (4/4) 2:11 PM CDT (4/4)
Length of Visible Light 13h 51m
Length of Day
12h 53m
Waning Crescent, 33% of the Moon is Illuminated
Apr 4
Waning Crescent
Apr 10
New
Apr 18
First Quarter
Apr 25
Full
May 2
Last Quarter

Hourly Weather History & Observations

Time (CDT) Temp. Windchill Dew Point Humidity Pressure Visibility Wind Dir Wind Speed Gust Speed Precip Events Conditions
12:15 AM 46.4 °F 40.1 °F 24.8 °F 43% 30.09 in 10.0 mi SSW 15.0 mph 21.9 mph N/A   Clear
12:35 AM 46.4 °F 38.7 °F 24.8 °F 43% 30.09 in 10.0 mi SSW 20.7 mph 26.5 mph N/A   Clear
12:55 AM 44.6 °F 36.9 °F 24.8 °F 46% 30.09 in 10.0 mi South 18.4 mph 25.3 mph N/A   Clear
1:15 AM 44.6 °F 37.4 °F 24.8 °F 46% 30.09 in 10.0 mi SSW 16.1 mph 23.0 mph N/A   Partly Cloudy
1:35 AM 44.6 °F 37.2 °F 24.8 °F 46% 30.09 in 10.0 mi SSW 17.3 mph 20.7 mph N/A   Scattered Clouds
1:55 AM 44.6 °F 38.4 °F 26.6 °F 49% 30.08 in 10.0 mi SSW 12.7 mph - N/A   Overcast
2:15 AM 46.4 °F 40.7 °F 26.6 °F 46% 30.08 in 10.0 mi SSW 12.7 mph - N/A   Mostly Cloudy
2:35 AM 46.4 °F 40.4 °F 26.6 °F 46% 30.08 in 10.0 mi SSW 13.8 mph 23.0 mph N/A   Mostly Cloudy
2:55 AM 44.6 °F 36.9 °F 26.6 °F 49% 30.08 in 10.0 mi SW 18.4 mph 23.0 mph N/A   Mostly Cloudy
3:15 AM 44.6 °F 37.8 °F 28.4 °F 53% 30.08 in 10.0 mi SW 15.0 mph 24.2 mph N/A   Scattered Clouds
3:35 AM 44.6 °F 38.4 °F 28.4 °F 53% 30.08 in 10.0 mi SW 12.7 mph - N/A   Clear
3:55 AM 44.6 °F 37.2 °F 28.4 °F 53% 30.06 in 10.0 mi SSW 17.3 mph - N/A   Clear
4:15 AM 44.6 °F 38.1 °F 28.4 °F 53% 30.05 in 10.0 mi SW 13.8 mph - N/A   Clear
4:35 AM 42.8 °F 36.2 °F 28.4 °F 57% 30.05 in 10.0 mi SW 12.7 mph - N/A   Clear
4:55 AM 42.8 °F 35.8 °F 30.2 °F 61% 30.04 in 10.0 mi SW 13.8 mph 21.9 mph N/A   Clear
5:15 AM 42.8 °F 35.8 °F 30.2 °F 61% 30.04 in 10.0 mi SSW 13.8 mph - N/A   Clear
5:35 AM 42.8 °F 35.4 °F 30.2 °F 61% 30.03 in 10.0 mi SW 15.0 mph - N/A   Scattered Clouds
5:55 AM 42.8 °F 36.2 °F 30.2 °F 61% 30.04 in 10.0 mi SW 12.7 mph - N/A   Scattered Clouds
6:15 AM 42.8 °F 37.5 °F 30.2 °F 61% 30.05 in 10.0 mi WSW 9.2 mph - N/A   Mostly Cloudy
6:35 AM 44.6 °F 38.4 °F 30.2 °F 57% 30.05 in 10.0 mi WSW 12.7 mph - N/A   Overcast
6:55 AM 42.8 °F 37.5 °F 30.2 °F 61% 30.06 in 10.0 mi WSW 9.2 mph - N/A   Scattered Clouds
7:15 AM 42.8 °F 36.6 °F 30.2 °F 61% 30.07 in 10.0 mi NW 11.5 mph - N/A   Scattered Clouds
7:35 AM 39.2 °F 32.0 °F 33.8 °F 81% 30.06 in 10.0 mi NW 11.5 mph - N/A   Scattered Clouds
7:55 AM 37.4 °F 29.3 °F 32.0 °F 81% 30.08 in 10.0 mi NW 12.7 mph - N/A   Scattered Clouds
8:15 AM 37.4 °F 28.5 °F 30.2 °F 75% 30.09 in 10.0 mi NW 15.0 mph - N/A   Scattered Clouds
8:35 AM 37.4 °F 29.3 °F 28.4 °F 70% 30.09 in 10.0 mi NNW 12.7 mph 21.9 mph N/A   Mostly Cloudy
8:55 AM 37.4 °F 28.9 °F 30.2 °F 75% 30.10 in 10.0 mi NNW 13.8 mph - N/A   Scattered Clouds
9:15 AM 39.2 °F 31.6 °F 30.2 °F 70% 30.10 in 10.0 mi NNW 12.7 mph - N/A   Partly Cloudy
9:35 AM 42.8 °F 36.2 °F 32.0 °F 66% 30.11 in 10.0 mi North 12.7 mph - N/A   Clear
9:55 AM 44.6 °F 38.4 °F 32.0 °F 61% 30.11 in 10.0 mi North 12.7 mph - N/A   Clear
10:15 AM 46.4 °F 39.8 °F 28.4 °F 50% 30.12 in 10.0 mi North 16.1 mph - N/A   Clear
10:35 AM 46.4 °F 39.0 °F 26.6 °F 46% 30.13 in 10.0 mi North 19.6 mph 24.2 mph N/A   Clear
10:55 AM 48.2 °F - 26.6 °F 43% 30.14 in 10.0 mi North 17.3 mph 23.0 mph N/A   Clear
11:35 AM 50.0 °F - 26.6 °F 40% 30.15 in 10.0 mi North 16.1 mph 21.9 mph N/A   Clear
11:55 AM 51.8 °F - 24.8 °F 35% 30.16 in 10.0 mi NNW 16.1 mph 25.3 mph N/A   Clear
12:15 PM 51.8 °F - 21.2 °F 30% 30.16 in 10.0 mi NNW 15.0 mph 21.9 mph N/A   Clear
12:35 PM 53.6 °F - 23.0 °F 30% 30.15 in 10.0 mi NNW 21.9 mph 25.3 mph N/A   Clear
12:55 PM 53.6 °F - 23.0 °F 30% 30.15 in 10.0 mi NNW 18.4 mph 24.2 mph N/A   Clear
1:15 PM 53.6 °F - 21.2 °F 28% 30.14 in 10.0 mi North 16.1 mph 24.2 mph N/A   Clear
1:35 PM 53.6 °F - 21.2 °F 28% 30.14 in 10.0 mi North 17.3 mph 20.7 mph N/A   Clear
1:55 PM 53.6 °F - 21.2 °F 28% 30.14 in 10.0 mi NNW 11.5 mph - N/A   Clear
2:15 PM 55.4 °F - 19.4 °F 25% 30.13 in 10.0 mi NNW 12.7 mph 20.7 mph N/A   Clear
2:35 PM 55.4 °F - 19.4 °F 25% 30.12 in 10.0 mi North 15.0 mph 19.6 mph N/A   Clear
2:55 PM 55.4 °F - 19.4 °F 25% 30.12 in 10.0 mi NNW 15.0 mph - N/A   Clear
3:15 PM 55.4 °F - 19.4 °F 25% 30.11 in 10.0 mi NNW 13.8 mph 18.4 mph N/A   Clear
3:35 PM 57.2 °F - 19.4 °F 23% 30.11 in 10.0 mi North 13.8 mph - N/A   Clear
3:55 PM 55.4 °F - 19.4 °F 25% 30.11 in 10.0 mi NNW 12.7 mph 19.6 mph N/A   Clear
4:15 PM 55.4 °F - 17.6 °F 23% 30.11 in 10.0 mi NNW 9.2 mph - N/A   Clear
4:35 PM 57.2 °F - 19.4 °F 23% 30.10 in 10.0 mi NNE 9.2 mph 17.3 mph N/A   Clear
4:55 PM 57.2 °F - 19.4 °F 23% 30.10 in 10.0 mi NNW 12.7 mph 17.3 mph N/A   Clear
5:15 PM 55.4 °F - 19.4 °F 25% 30.10 in 10.0 mi North 10.4 mph 17.3 mph N/A   Clear
5:35 PM 55.4 °F - 19.4 °F 25% 30.10 in 10.0 mi NNE 6.9 mph - N/A   Partly Cloudy
5:55 PM 57.2 °F - 19.4 °F 23% 30.11 in 10.0 mi North 10.4 mph 18.4 mph N/A   Partly Cloudy
6:15 PM 57.2 °F - 21.2 °F 25% 30.11 in 10.0 mi North 9.2 mph - N/A   Partly Cloudy
6:35 PM 55.4 °F - 21.2 °F 26% 30.11 in 10.0 mi NNE 10.4 mph - N/A   Partly Cloudy
6:55 PM 55.4 °F - 21.2 °F 26% 30.11 in 10.0 mi NNE 5.8 mph - N/A   Scattered Clouds
7:15 PM 55.4 °F - 19.4 °F 25% 30.11 in 10.0 mi NNE 11.5 mph - N/A   Mostly Cloudy
7:35 PM 51.8 °F - 24.8 °F 35% 30.12 in 10.0 mi North 12.7 mph - N/A   Partly Cloudy
7:55 PM 51.8 °F - 24.8 °F 35% 30.12 in 10.0 mi North 11.5 mph - N/A   Scattered Clouds
8:15 PM 48.2 °F - 23.0 °F 37% 30.12 in 10.0 mi North 9.2 mph - N/A   Partly Cloudy
8:35 PM 46.4 °F 41.5 °F 24.8 °F 43% 30.12 in 10.0 mi North 10.4 mph - N/A   Clear
8:55 PM 44.6 °F 40.2 °F 24.8 °F 46% 30.13 in 10.0 mi North 8.1 mph - N/A   Clear
9:15 PM 44.6 °F 40.2 °F 24.8 °F 46% 30.13 in 10.0 mi NNE 8.1 mph - N/A   Clear
9:35 PM 42.8 °F 37.0 °F 24.8 °F 49% 30.14 in 10.0 mi NNE 10.4 mph - N/A   Clear
9:55 PM 42.8 °F 36.2 °F 24.8 °F 49% 30.15 in 10.0 mi NNE 12.7 mph - N/A   Clear
10:15 PM 41.0 °F 33.9 °F 26.6 °F 57% 30.15 in 10.0 mi NE 12.7 mph - N/A   Clear
10:35 PM 39.2 °F 32.0 °F 24.8 °F 56% 30.16 in 10.0 mi NE 11.5 mph 16.1 mph N/A   Clear
10:55 PM 39.2 °F 34.2 °F 24.8 °F 56% 30.17 in 10.0 mi NE 6.9 mph - N/A   Clear
11:15 PM 37.4 °F 30.8 °F 24.8 °F 60% 30.17 in 10.0 mi NE 9.2 mph - N/A   Partly Cloudy
11:35 PM 35.6 °F 28.0 °F 24.8 °F 65% 30.17 in 10.0 mi ENE 10.4 mph - N/A   Partly Cloudy
11:55 PM 35.6 °F 27.1 °F 24.8 °F 65% 30.18 in 10.0 mi NE 12.7 mph - N/A   Partly Cloudy